This is the latest recevied weather packets stored in our database for station/object KC1TEM-13. If no packets are shown the sender has not sent any weather packets the latest 10 day(s).
| Time | Temp. | Humidity | Pressure | Rain* | Wind** | Luminosity | Snow |
|---|---|---|---|---|---|---|---|
| 1788439091 | 17.22° C | 99% | 1015.9 hPa | 0 mm | - | 46 W/m² | - |
| 1788438791 | 17.22° C | 99% | 1015.9 hPa | 0 mm | - | 38 W/m² | - |
| 1788438490 | 17.22° C | 99% | 1016.1 hPa | 0 mm | - | 30 W/m² | - |
| 1788438185 | 17.22° C | 99% | 1016.1 hPa | 0 mm | - | 30 W/m² | - |
| 1788437883 | 16.67° C | 99% | 1016.1 hPa | 0.51 mm | - | 27 W/m² | - |
| 1788437579 | 16.67° C | 99% | 1016.1 hPa | 0 mm | - | 25 W/m² | - |
| 1788437274 | 16.67° C | 99% | 1016.3 hPa | 0 mm | - | 24 W/m² | - |
| 1788436968 | 16.67° C | 99% | 1016.5 hPa | 0.51 mm | - | 17 W/m² | - |
| 1788436667 | 16.67° C | 99% | 1016.5 hPa | 0.51 mm | - | 16 W/m² | - |
| 1788436362 | 16.67° C | 99% | 1016.2 hPa | 0 mm | - | 13 W/m² | - |
| 1788436062 | 16.67° C | 99% | 1016.5 hPa | 0 mm | - | 15 W/m² | - |
| 1788435758 | 16.67° C | 99% | 1016.5 hPa | 0.51 mm | - | 13 W/m² | - |
| 1788435453 | 16.67° C | 99% | 1016.4 hPa | 0.51 mm | - | 18 W/m² | - |
| 1788435149 | 16.67° C | 99% | 1016.3 hPa | 0.51 mm | - | 19 W/m² | - |
| 1788434854 | 16.67° C | 99% | 1016.4 hPa | 1.27 mm | - | 18 W/m² | - |
| 1788434540 | 16.67° C | 99% | 1016.5 hPa | 0.51 mm | - | 11 W/m² | - |
| 1788434239 | 16.67° C | 99% | 1016.4 hPa | 0.51 mm | - | 11 W/m² | - |
| 1788433934 | 16.67° C | 99% | 1016.4 hPa | 1.78 mm | - | 9 W/m² | - |
| 1788433630 | 16.67° C | 99% | 1016.3 hPa | 3.56 mm | - | 11 W/m² | - |
| 1788433326 | 16.67° C | 99% | 1016.5 hPa | 1.78 mm | - | 8 W/m² | - |
| 1788433025 | 16.67° C | 99% | 1016.5 hPa | 0.51 mm | - | 8 W/m² | - |
| 1788432721 | 16.67° C | 99% | 1016.4 hPa | 0.51 mm | - | 7 W/m² | - |
| 1788432420 | 16.67° C | 99% | 1016.4 hPa | 0 mm | - | 4 W/m² | - |
| 1788432115 | 16.67° C | 98% | 1016.3 hPa | 0.51 mm | - | 5 W/m² | - |
| 1788431811 | 16.67° C | 98% | 1016.4 hPa | 0.51 mm | - | 4 W/m² | - |
* Rain latest hour (hover to see other rain measurements)
** Current wind speed in m/s (hover to see current wind gust speed)